This is the latest recevied weather packets stored in our database for station/object XE2OR-10. If no packets are shown the sender has not sent any weather packets the latest 10 day(s).
| Time | Temp. | Humidity | Pressure | Rain* | Wind** | Luminosity | Snow |
|---|---|---|---|---|---|---|---|
| 1777986833 | 21.67° C | 94% | 1012.3 hPa | 0 mm | - | 90 W/m² | - |
| 1777986529 | 21.11° C | 95% | 1012.4 hPa | 0 mm | - | 70 W/m² | - |
| 1777986228 | 21.11° C | 95% | 1012.2 hPa | 0 mm | - | 54 W/m² | - |
| 1777985929 | 21.11° C | 95% | 1012.1 hPa | 0 mm | - | 46 W/m² | - |
| 1777985632 | 21.11° C | 96% | 1012.3 hPa | 0 mm | - | 42 W/m² | - |
| 1777985329 | 20.56° C | 96% | 1012.4 hPa | 0 mm | - | 40 W/m² | - |
| 1777985032 | 20.56° C | 96% | 1012.3 hPa | 0 mm | - | 38 W/m² | - |
| 1777984729 | 20.56° C | 96% | 1012.2 hPa | 0 mm | - | 29 W/m² | - |
| 1777984429 | 20.56° C | 96% | 1012.2 hPa | 0 mm | - | 25 W/m² | - |
| 1777984130 | 20.56° C | 96% | 1012 hPa | 0 mm | - | 20 W/m² | - |
| 1777983833 | 20.56° C | 96% | 1011.9 hPa | 0 mm | - | 12 W/m² | - |
| 1777983529 | 20.56° C | 96% | 1011.9 hPa | 0 mm | - | 11 W/m² | - |
| 1777983232 | 20° C | 96% | 1012 hPa | 0 mm | - | 7 W/m² | - |
| 1777982929 | 20° C | 96% | 1011.8 hPa | 0 mm | - | 3 W/m² | - |
| 1777982629 | 20° C | 96% | 1011.8 hPa | 0 mm | - | 0 W/m² | - |
| 1777982329 | 20° C | 96% | 1011.9 hPa | 0 mm | - | 0 W/m² | - |
| 1777982032 | 20° C | 96% | 1011.9 hPa | 0 mm | - | 0 W/m² | - |
| 1777981728 | 20° C | 96% | 1011.6 hPa | 0 mm | - | 0 W/m² | - |
| 1777981433 | 20.56° C | 96% | 1011.8 hPa | 0 mm | - | 0 W/m² | - |
| 1777981129 | 20.56° C | 96% | 1011.6 hPa | 0 mm | - | 0 W/m² | - |
| 1777980829 | 20.56° C | 96% | 1011.5 hPa | 0 mm | - | 0 W/m² | - |
| 1777980529 | 20.56° C | 95% | 1011.5 hPa | 0 mm | - | 0 W/m² | - |
| 1777980233 | 20.56° C | 95% | 1011.5 hPa | 0 mm | - | 0 W/m² | - |
| 1777979929 | 20.56° C | 95% | 1011.5 hPa | 0 mm | - | 0 W/m² | - |
| 1777979633 | 20.56° C | 95% | 1011.8 hPa | 0 mm | - | 0 W/m² | - |
* Rain latest hour (hover to see other rain measurements)
** Current wind speed in m/s (hover to see current wind gust speed)